Location: Góry Miechowskie
(50.3599°N, 20.1803°E)
Time: 08:33:46
(UTC+00:00)

Courier 1B - Pass Details

Date: 17 September 2024
Orbit: 962 x 1208 km, 28.3° (Epoch: 12 October)

Event Time Altitude Azimuth Distance (km) Brightness Sun altitude
Rises 15:10:39 0° 237° (WSW) 3,962 12.2 14.5°
Reaches altitude 10° 15:16:28 10° 202° (SSW) 3,065 10.7 13.6°
Maximum altitude 15:17:55 11° 191° (S) 3,031 10.5 13.4°
Drops below altitude 10° 15:19:23 10° 180° (S) 3,090 10.3 13.2°
Sets 15:25:24 0° 145° (SE) 4,090 10.5 12.3°
